Weather History for LTCA - March, 2013

Change the Weather History Date:

Sunday, March 17, 2013

  Actual Average Record
Temperature  
Mean Temperature 47 °F -  
Max Temperature 59 °F 50 °F 60 °F (2014)
Min Temperature 35 °F 30 °F 19 °F (2012)
Degree Days  
Heating Degree Days 18    
Moisture  
Dew Point 32 °F    
Average Humidity 58    
Maximum Humidity 87    
Minimum Humidity 25    
Precipitation  
Precipitation 0.02 in - - ()
Sea Level Pressure  
Sea Level Pressure 29.72 in    
Wind  
Wind Speed 9 mph ()    
Max Wind Speed 18 mph    
Max Gust Speed -    
Visibility 6.7 miles    
Events Rain    
Averages and records for this station are not official NWS values.
T = Trace of Precipitation, MM = Missing Value Source: Averaged Metar Reports

Daily Weather History Graph

Daily Weather History Graph

Search for Another Location

Airport or City:

Trip Planner

Search our weather history database for the weather conditions in past years. The results will help you decide how hot, cold, wet, or windy it might be!

Date:

Astronomy

Mar. 17, 2013 Rise Set
Actual Time 5:31 AM EET 5:31 PM EET
Civil Twilight 5:04 AM EET 5:58 PM EET
Nautical Twilight 4:33 AM EET 6:29 PM EET
Astronomical Twilight 4:02 AM EET 7:00 PM EET
Moon 8:31 AM EET (3/17) 11:10 PM EET (3/17)
Length of Visible Light 12h 53m
Length of Day
12h 00m
Waxing Crescent, 29% of the Moon is Illuminated
Mar 17
Waxing Crescent
Mar 19
First Quarter
Mar 27
Full
Apr 3
Last Quarter
Apr 10
New

Hourly Weather History & Observations

Time (EET) Temp. Windchill Dew Point Humidity Pressure Visibility Wind Dir Wind Speed Gust Speed Precip Events Conditions
12:50 AM 53.6 °F - 33.8 °F 47% 29.71 in 6.2 mi SSW 5.8 mph - N/A   Mostly Cloudy
1:50 AM 50.0 °F - 30.2 °F 47% 29.71 in 6.2 mi West 12.7 mph - N/A   Mostly Cloudy
2:00 AM 49 °F - 31 °F 37% 29.65 in 12 mi West 12.7 mph - -   Partly Cloudy
2:50 AM 44.6 °F 41.4 °F 32.0 °F 61% 29.71 in 6.2 mi WSW 5.8 mph - N/A   Mostly Cloudy
3:50 AM 41.0 °F 35.8 °F 30.2 °F 65% 29.71 in 6.2 mi SSW 8.1 mph - N/A   Mostly Cloudy
4:50 AM 39.2 °F 35.9 °F 28.4 °F 65% 29.71 in 6.2 mi West 4.6 mph - N/A   Mostly Cloudy
5:50 AM 35.6 °F 31.7 °F 28.4 °F 75% 29.71 in 6.2 mi West 4.6 mph - N/A   Scattered Clouds
6:50 AM 44.6 °F 41.4 °F 32.0 °F 61% 29.71 in 6.2 mi WNW 5.8 mph - N/A   Partly Cloudy
7:50 AM 50.0 °F - 32.0 °F 50% 29.71 in 6.2 mi SE 5.8 mph - N/A   Scattered Clouds
8:00 AM 50 °F - 31 °F 35% 29.68 in 12 mi SE 5.8 mph - -   Partly Cloudy
8:50 AM 53.6 °F - 28.4 °F 38% 29.71 in 6.2 mi Variable 3.5 mph - N/A   Scattered Clouds
9:50 AM 57.2 °F - 28.4 °F 33% 29.68 in 6.2 mi Variable 4.6 mph - N/A   Mostly Cloudy
10:50 AM 57.2 °F - 26.6 °F 31% 29.68 in 6.2 mi SSW 9.2 mph - N/A   Mostly Cloudy
11:50 AM 55.4 °F - 30.2 °F 38% 29.65 in 6.2 mi East 8.1 mph - N/A   Mostly Cloudy
12:50 PM 55.4 °F - 24.8 °F 31% 29.65 in 6.2 mi SW 10.4 mph - N/A   Mostly Cloudy
1:50 PM 55.4 °F - 28.4 °F 36% 29.65 in 6.2 mi SW 18.4 mph - N/A   Mostly Cloudy
2:00 PM 54 °F - 29 °F 25% 29.62 in 12 mi SW 18.4 mph - -   Partly Cloudy
2:50 PM 50.0 °F - 33.8 °F 54% 29.68 in 6.2 mi SW 15.0 mph - N/A   Mostly Cloudy
3:50 PM 46.4 °F 39.2 °F 35.6 °F 66% 29.68 in 6.2 mi WSW 18.4 mph - N/A   Mostly Cloudy
4:50 PM 44.6 °F 36.9 °F 33.8 °F 66% 29.71 in 6.2 mi SW 18.4 mph - N/A   Mostly Cloudy
5:23 PM 42.8 °F 36.2 °F 33.8 °F 70% 29.74 in 6.2 mi SSW 12.7 mph - N/A Rain Light Rain Showers
5:45 PM 42.8 °F 36.6 °F 32.0 °F 66% 29.74 in 6.2 mi SW 11.5 mph - N/A   Mostly Cloudy
5:50 PM 42.8 °F 37.0 °F 33.8 °F 70% 29.74 in 6.2 mi SSW 10.4 mph - N/A   Mostly Cloudy
6:50 PM 41.0 °F 33.9 °F 35.6 °F 81% 29.77 in 6.2 mi WSW 12.7 mph - N/A   Mostly Cloudy
7:01 PM 41.0 °F 35.2 °F 37.4 °F 87% 29.77 in 6.2 mi West 9.2 mph - N/A Rain Light Rain Showers
7:50 PM 41.0 °F 33.5 °F 35.6 °F 81% 29.77 in 6.2 mi WSW 13.8 mph - N/A Rain Light Rain Showers
8:00 PM 42 °F - 36 °F 70% 29.79 in 6 mi WSW 13.8 mph - - Rain Light Rain Showers
8:05 PM 41.0 °F 34.3 °F 35.6 °F 81% 29.77 in 6.2 mi WSW 11.5 mph - N/A   Mostly Cloudy
8:50 PM 41.0 °F 33.5 °F 33.8 °F 76% 29.77 in 6.2 mi WSW 13.8 mph - N/A   Mostly Cloudy
9:50 PM 41.0 °F 34.7 °F 33.8 °F 76% 29.80 in 6.2 mi WSW 10.4 mph - N/A   Mostly Cloudy
10:50 PM 41.0 °F 33.1 °F 30.2 °F 65% 29.80 in 6.2 mi WSW 15.0 mph - N/A   Mostly Cloudy
11:50 PM 41.0 °F 35.2 °F 33.8 °F 76% 29.83 in 6.2 mi WSW 9.2 mph - N/A   Mostly Cloudy